Flag for Germany Weather past 2 weeks in Bad Hersfeld, Hesse, Germany

Now
46 °F

Cool.


Feels Like: 45 °F
Forecast: 55 / 71 °F
Wind: 3 mph from Northwest

Location: Fritzlar Airport

Current Time: Aug 28, 2014 at 2:11:53 AM

Latest Report: Aug 28, 2014 at 1:20 AM


Visibility: N/A

Pressure: 30.07 "Hg

Humidity: 100%

Dew point: 46 °F

Location of Bad HersfeldLocation

Historic Weather in Bad Hersfeld — Graph

°F

Bad Hersfeld temperature yesterday

Maximum temperature yesterday: 68 °F (at 4:20 PM)
Minimum temperature yesterday: 48 °F (at 6:49 AM)
Average temperature yesterday: 56 °F

Past Weeks' High & Low Weather Summary

 TemperatureHumidityPressure
High70 °F (Aug 13, 2:20 PM)100% (Aug 13, 11:20 PM)30.09 "Hg (Aug 13, 11:20 PM)
Low43 °F (Aug 20, 6:20 AM)38% (Aug 18, 4:20 PM)29.65 "Hg (Aug 13, 3:20 PM)
Average57 °F77%29.91 "Hg
* Reported Midnight between Aug 12 and Aug 13 — Aug 28 12:20 AM, Bad Hersfeld, Weather by CustomWeather, © 2014

Note: Actual official high and low records may vary slightly from our data, if they occured in-between our weather recording intervals... More about our weather records

Advertising

Bad Hersfeld weather history for previous 24 hours

 ConditionsComfort  
Time TempWeatherWind HumidityBarometerVisibility
12:20 AM
Aug 28
46 °FCool.3 mph93%30.07 "HgN/A
11:20 PM
Aug 27
50 °FPassing clouds.3 mph94%30.07 "HgN/A
10:20 PM52 °FPassing clouds.3 mph94%30.07 "HgN/A
9:20 PM54 °FPassing clouds.3 mph82%30.07 "HgN/A
8:20 PM57 °FPassing clouds.3 mph82%30.04 "HgN/A
7:20 PM63 °FPassing clouds.5 mph68%30.04 "HgN/A
6:20 PM68 °FPassing clouds.3 mph43%30.04 "HgN/A
5:20 PM68 °FPassing clouds.5 mph43%30.04 "HgN/A
4:20 PM68 °FPassing clouds.5 mph46%30.04 "HgN/A
3:20 PM66 °FPassing clouds.3 mph46%30.04 "HgN/A
2:20 PM66 °FPassing clouds.3 mph52%30.04 "HgN/A
1:20 PM64 °FPassing clouds.3 mph49%30.04 "HgN/A
12:20 PM63 °FPassing clouds.2 mph64%30.04 "HgN/A
11:20 AM57 °FPassing clouds.2 mph77%30.04 "HgN/A
10:20 AM54 °FFog.3 mph88%30.01 "Hg3 mi
9:20 AM50 °FFog.3 mph100%30.01 "Hg1 mi
8:20 AM50 °FFog.2 mph94%29.98 "Hg1 mi
7:20 AM48 °FFog.2 mph100%29.95 "Hg0 mi
6:49 AM48 °FFog.5 mph100%29.92 "Hg1 mi
6:20 AM50 °FFog.3 mph94%29.92 "Hg1 mi
5:20 AM50 °FFog.5 mph100%29.89 "Hg2 mi
4:20 AM52 °FPassing clouds.5 mph94%29.86 "Hg6 mi
3:20 AM52 °FPartly cloudy.6 mph100%29.86 "HgN/A
2:20 AM54 °FPassing clouds.3 mph94%29.83 "HgN/A
Weather by CustomWeather, © 2014

See weather overviewHow to use our weather pages